Location: Malvern Link
(52.1333°N, 2.3000°W)
Time: 10:16:21
(UTC+00:00)

SPROUT - Visible Passes

Search period start: 30 June 2022 00:00
Search period end: 10 July 2022 00:00
Orbit: 588 x 601 km, 97.9° (Epoch: 29 June)

Date Brightness Start Highest point End Pass type
(mag) Time Alt. Az. Time Alt. Az. Time Alt. Az.
30 Jun ? 00:10:15 15° SE 00:13:21 43° ENE 00:17:19 10° N visible
30 Jun ? 01:46:53 16° SW 01:49:08 24° W 01:52:34 10° NW visible
01 Jul ? 00:19:49 18° SE 00:22:46 52° ENE 00:26:51 10° N visible
01 Jul ? 01:56:28 14° SW 01:58:41 20° W 02:01:47 10° NW visible
01 Jul ? 22:56:30 10° ENE 22:57:24 11° NE 22:58:19 10° NE visible
02 Jul ? 00:29:24 20° SSE 00:32:11 64° ENE 00:36:21 10° N visible
02 Jul ? 02:06:02 12° SW 02:08:13 17° W 02:10:55 10° NW visible
02 Jul ? 23:04:55 10° E 23:06:43 13° NE 23:08:31 10° NNE visible
03 Jul ? 00:38:57 22° SSE 00:41:37 79° ENE 00:45:49 10° NNW visible
03 Jul ? 02:15:39 10° WSW 02:17:46 14° W 02:19:54 10° WNW visible
03 Jul ? 23:13:41 10° E 23:16:02 15° NE 23:18:22 10° NNE visible
04 Jul ? 00:48:31 23° SSE 00:51:03 85° W 00:55:15 10° NNW visible
04 Jul ? 02:26:08 10° WSW 02:27:20 11° W 02:28:32 10° WNW visible
04 Jul ? 23:22:35 10° E 23:25:20 17° ENE 23:28:06 10° NNE visible
05 Jul ? 00:58:04 24° S 01:00:29 69° WSW 01:04:40 10° NNW visible
05 Jul ? 23:31:34 10° ESE 23:34:39 20° ENE 23:37:45 10° NNE visible
06 Jul ? 01:07:37 24° S 01:09:55 56° WSW 01:14:03 10° NNW visible
06 Jul ? 23:40:38 10° ESE 23:43:58 24° ENE 23:47:21 10° N visible
07 Jul ? 01:17:09 23° SSW 01:19:21 45° W 01:23:24 10° NNW visible
07 Jul ? 23:50:03 12° ESE 23:53:18 28° ENE 23:56:54 10° N visible
08 Jul ? 01:26:40 22° SSW 01:28:48 37° W 01:32:43 10° NNW visible
08 Jul ? 23:59:34 14° SE 00:02:38 34° ENE 00:06:25 10° N visible
09 Jul ? 01:36:12 20° SW 01:38:15 30° W 01:41:59 10° NNW visible
